Location: *
(31.2983°S, 151.4094°E)
Time: 16:13:18
(UTC+00:00)

Cosmos 1400 Rocket - Pass Details

Date: 25 August 2019
Orbit: 522 x 568 km, 81.2° (Epoch: 23 October)

Event Time Altitude Azimuth Distance (km) Brightness Sun altitude
Rises 19:38:43 0° 179° (S) 2,787 6.4 -9.3°
Reaches altitude 10° 19:41:01 10° 172° (S) 1,886 5.6 -8.8°
Maximum altitude 19:44:58 41° 101° (E) 840 4.4 -7.9°
Drops below altitude 10° 19:48:53 10° 29° (NNE) 1,868 6.1 -7.1°
Sets 19:51:08 0° 22° (NNE) 2,756 6.8 -6.6°
